Regional Weather Roundup
Issued by NWS Cleveland, OH

Home | Current Version | Previous Version | Graphics & Text | Print | Product List | Glossary On
Versions: 1 2 3 4 5 6 7 8 9 10 11 12 13 14 15 16 17 18 19 20 21 22 23 24 25 26 27 28 29 30 31 32 33 34 35 36 37 38 39 40 41 42 43 44 45 46 47 48 49 50
462
ASUS41 KCLE 270810
RWRCLE
OHIO REGIONAL WEATHER ROUNDUP
NATIONAL WEATHER SERVICE WILMINGTON, OH
400 AM EDT MON MAR 27 2017

NOTE: "FAIR" INDICATES FEW OR NO CLOUDS BELOW 12,000 FEET WITH NO
SIGNIFICANT WEATHER AND/OR OBSTRUCTIONS TO VISIBILITY.

OHZ001>008-015>018-024>027-034-035-043-044-270900-
   NORTHWEST OHIO

CITY           SKY/WX    TMP DP  RH WIND       PRES   REMARKS
DEFIANCE       CLOUDY    52  49  89 SW8       29.89S
FINDLAY        CLOUDY    54  49  83 W9        29.89S
TOLEDO EXPRESS CLOUDY    52  52 100 SW10      29.87S
TOLEDO EXEC    CLOUDY    53  53 100 SW9       29.89R
LIMA           MOCLDY    51  49  92 SW8       29.91S
$$

OHZ009>014-019>023-028>033-038-089-270900-
   NORTHEAST OHIO

CITY           SKY/WX    TMP DP  RH WIND       PRES   REMARKS
CLE-HOPKINS    CLOUDY    56  52  86 S8        29.91S
CLE-LAKEFRONT  CLOUDY    56  52  86 S12       29.87F
CUY CO. ARPT   NOT AVBL
LORAIN-ELYRIA  CLOUDY    54  50  86 SW10      29.89S
ASHTABULA      CLOUDY    53  53 100 S6        29.90F
AKRON-CANTON   CLOUDY    55  51  86 SW8       29.90F
WOOSTER        FAIR      52  51  97 SW7       29.91F
MANSFIELD      CLOUDY    53  51  93 SW8       29.91S
YOUNGSTOWN     CLOUDY    54  52  93 S6        29.91F
$$

OHZ042-051>053-060>062-070>072-077>081-270900-
  SOUTHWEST OHIO

CITY           SKY/WX    TMP DP  RH WIND       PRES   REMARKS
CINC-COVINGTON FAIR      49  48  97 S3        29.96S
CINC-LUNKEN    FOG       46  32  58 CALM      29.98S VSB 1/4
HAMILTON       FOG       43  43 100 CALM      29.97S VSB 1/4
DAYTON         FAIR      49  48  97 SW9       29.95S
WRIGHT-PAT AFB CLEAR     45  45 100 SW7       29.95R
DAYTON GENERAL FOG       48  47  96 S3        29.95S VSB 1/2
WILMINGTON     FAIR      49  48  97 S3        29.96S FOG
$$

OHZ036-037-039>041-045>050-054>059-063>069-073>076-082>088-270900-
  CENTRAL AND SOUTHEAST OHIO

CITY           SKY/WX    TMP DP  RH WIND       PRES   REMARKS
COLUMBUS       FAIR      52  51  97 SW6       29.94S
OSU AIRPORT    FAIR      50  50 100 SW6       29.94R FOG
BOLTON FIELD   FAIR      49  49 100 SW7       29.95S FOG
RICKENBACK AFB   N/A     49  49 100 SW6       29.94F FOG
NEWARK         FAIR      51  50  96 SW6       29.93S
MARION         FAIR      50  48  93 SW7       29.92S
LANCASTER      FAIR      54  51  90 SW3       29.95S
ZANESVILLE     MOCLDY    54  53  97 SW3       29.94S
NEW PHILLY     CLOUDY    56  54  93 VRB3      29.93S
$$




USA.gov is the U.S. government's official web portal to all federal, state and local government web resources and services.